Date,TemperatureHighF,TemperatureAvgF,TemperatureLowF,DewpointHighF,DewpointAvgF,DewpointLowF,HumidityHigh,HumidityAvg,HumidityLow,PressureMaxIn,PressureMinIn,WindSpeedMaxMPH,WindSpeedAvgMPH,GustSpeedMaxMPH,PrecipitationSumIn
2013-3-1,42,39,34,31,28,24,70,65,54,29.92,29.74,21,8,24,0.00
2013-3-2,35,32,29,26,22,18,75,67,60,29.93,29.85,19,6,19,0.00
2013-3-3,39,32,29,22,20,17,71,60,48,29.96,29.83,25,8,29,0.00
2013-3-4,42,34,27,22,18,15,63,53,41,30.06,29.95,27,9,29,0.00
2013-3-5,51,41,32,29,23,19,86,49,35,30.09,29.81,18,3,20,0.00
2013-3-6,38,34,32,34,31,29,94,89,73,30.03,29.64,27,4,31,0.00
2013-3-7,45,40,35,30,29,27,78,65,50,30.19,30.03,24,5,28,0.00
2013-3-8,47,40,34,32,28,26,73,64,55,30.31,30.17,28,8,33,0.00
2013-3-9,58,43,30,34,29,25,83,60,37,30.37,30.27,17,4,19,0.00
2013-3-10,63,44,25,35,29,22,92,60,31,30.34,30.21,17,3,20,0.00
2013-3-11,59,49,39,50,43,30,92,79,64,30.25,29.91,21,5,22,0.00
2013-3-12,57,51,40,54,44,30,95,77,60,29.98,29.72,24,7,26,0.00
2013-3-13,48,39,28,33,27,20,89,63,40,30.10,29.92,35,7,35,0.00
2013-3-14,43,36,30,22,20,17,63,51,40,30.17,30.05,33,11,33,0.00
2013-3-15,57,42,25,37,27,19,85,56,39,30.12,29.79,19,4,23,0.00
2013-3-16,59,43,34,48,37,30,89,79,59,29.94,29.63,19,3,25,0.00
2013-3-17,38,35,30,33,29,26,92,78,62,30.29,29.93,13,2,14,0.00
2013-3-18,35,33,30,32,30,28,93,90,82,30.34,29.91,8,0,10,0.33
2013-3-19,34,34,33,33,32,32,94,94,93,29.94,29.78,5,0,6,0.00
2013-3-20,51,47,37,28,22,19,67,38,28,29.86,29.77,26,5,27,0.00
2013-3-21,37,32,27,28,18,12,85,56,43,29.93,29.80,30,5,30,0.00
2013-3-22,47,34,27,25,18,12,63,51,40,30.03,29.91,20,3,21,0.00
2013-3-23,53,39,21,29,24,17,88,57,35,30.06,29.92,20,3,23,0.00
2013-3-24,41,35,27,30,25,21,90,70,50,30.02,29.67,13,1,14,0.00
2013-3-25,39,34,32,34,31,30,93,90,82,29.73,29.54,10,1,12,0.00
2013-3-26,48,40,32,34,31,27,93,71,48,30.02,29.73,19,4,23,0.00
2013-3-27,48,41,36,34,29,26,75,62,50,30.15,30.01,30,8,30,0.00
2013-3-28,48,42,38,34,30,27,69,62,52,30.26,30.10,28,6,28,0.00
2013-3-29,55,45,35,37,32,28,83,61,42,30.29,30.16,18,2,20,0.00
2013-3-30,59,43,28,38,30,25,92,64,36,30.25,30.12,15,1,16,0.00
2013-3-31,50,42,33,48,38,29,92,86,76,30.13,29.77,12,0,14,0.00